+ View the NASA Portal
+ Center for Near-Earth Object Studies
IMPORTANT:
The SSD Announcement email list is now available. Major changes are coming in the near future, including possible hostname and/or URL changes. To be notified of such changes, subscribe to this email list.
Please visit
this page
for more details.
Don't show this message again
JPL Small-Body Database Browser
Search:
[
help
]
357160 (2002 CY127)
Classification:
Main-belt Asteroid
SPK-ID:
2357160
[
Ephemeris
|
Orbit Diagram
|
Orbital Elements
|
Mission Design
|
Physical Parameters
|
Discovery Circumstances
|
Close-Approach Data
]
[ show orbit diagram ]
Orbital Elements at Epoch 2458600.5 (2019-Apr-27.0) TDB
Reference:
JPL 7
(heliocentric ecliptic J2000)
Element
Value
Uncertainty (1-sigma)
Units
e
.2477729636361273
8.9621e-08
a
3.080934980571957
4.0979e-08
au
q
2.317562589665429
2.7217e-07
au
i
9.20596496295882
1.0236e-05
deg
node
142.0716839299961
8.3298e-05
deg
peri
344.8028234473994
8.9801e-05
deg
M
76.55003004160655
3.0813e-05
deg
t
p
2458180.484718895435
(2018-Mar-02.98471890)
0.00016479
TDB
period
1975.250710097177
5.41
3.9408e-05
1.079e-07
d
yr
n
.1822553451871884
3.6362e-09
deg/d
Q
3.844307371478485
5.1132e-08
au
Orbit Determination Parameters
# obs. used (total)
86
data-arc span
6377 days (17.46 yr)
first obs. used
2002-01-13
last obs. used
2019-06-30
planetary ephem.
DE431
SB-pert. ephem.
SB431-N16
condition code
0
norm. resid. RMS
.65393
source
ORB
producer
Otto Matic
solution date
2019-Sep-24 06:42:31
Additional Information
Earth MOID
= 1.33439 au
Jupiter MOID
= 1.23868 au
T_jup
= 3.161
[ show covariance matrix ]
[
Ephemeris
|
Orbit Diagram
|
Orbital Elements
|
Mission Design
|
Physical Parameters
|
Discovery Circumstances
|
Close-Approach Data
]
Physical Parameter Table
Parameter
Symbol
Value
Units
Sigma
Reference
Notes
absolute magnitude
H
16.7
n/a
MPO434255
357160 (2002 CY127)
Discovered 2002-Feb-07 by LINEAR at Socorro
Reference:
20130327/Numbers.arc
Last Updated:
2013-03-29
[ show close-approach data ]
[
Ephemeris
|
Orbit Diagram
|
Orbital Elements
|
Mission Design
|
Physical Parameters
|
Discovery Circumstances
|
Close-Approach Data
]
2019-Dec-13 02:58 UT
(server date/time)
Site Manager:
Ryan S. Park
Webmaster
:
Alan B. Chamberlin